Orbital Elements at Epoch 2459000.5 (2020-May-31.0) TDB
Reference: JPL 29 (heliocentric ecliptic J2000)
Element | Value | Uncertainty (1-sigma) | Units |
e | .1769031531948675 | 5.3878e-08 | |
a | 2.545002860617828 | 1.1238e-08 | au |
q | 2.094783829684577 | 1.3887e-07 | au |
i | 14.21819059117882 | 5.5922e-06 | deg |
node | 159.3996029702501 | 1.7339e-05 | deg |
peri | 180.6698458281838 | 2.1659e-05 | deg |
M | 74.98159079373427 | 1.1994e-05 | deg |
tp | 2458691.624836410408 (2019-Jul-27.12483641) | 4.9724e-05 | TDB |
period | 1482.964787958926 4.06 | 9.8227e-06 2.689e-08 | d yr |
n | .2427569440104407 | 1.608e-09 | deg/d |
Q | 2.99522189155108 | 1.3226e-08 | au |
|
| | Orbit Determination Parameters
Additional Information
|